This demonstration page uses our WeatherBlox Daily Observations layout. Learn more.

Left ArrowRight Arrow

39.51506, -84.39828

Hourly Observations for May 6, 2016

Temp ( °F °C ) Dew Point ( °F °C ) Humidity (%) Winds ( mph kmh ) Pressure ( in mb ) Visibility ( mi km ) Precip ( " mm )
12:15 am 00:15 Clear 49 9.6 42 5.6 76 76 N N/A 29.91 1013 10 16 N/A
12:35 am 00:35 Clear 49 9.6 43 6.1 79 79 N N/A 29.91 1013 10 16 N/A
12:55 am 00:55 Clear 49 9.6 42 5.7 77 77 N N/A 29.91 1013 10 16 N/A
1:15 am 01:15 Clear 55 12.5 43 6.1 65 65 NNW 7 11 29.91 1013 10 16 N/A
1:35 am 01:35 Clear 55 12.5 43 6.1 65 65 NNW 9 15 29.91 1013 10 16 N/A
1:55 am 01:55 Clear 55 12.5 44 6.6 68 68 NNW 9 15 29.91 1013 10 16 N/A
2:15 am 02:15 Clear 55 12.5 44 6.8 68 68 N 6 9 29.91 1013 10 16 N/A
2:35 am 02:35 Clear 53 11.8 44 6.7 71 71 N 5 7 29.94 1014 10 16 N/A
2:55 am 02:55 Partly Cloudy 51 10.7 43 5.9 72 72 N 3 6 29.94 1014 10 16 N/A
3:15 am 03:15 Partly Cloudy 49 9.6 42 5.4 75 75 N N/A 29.91 1013 10 16 N/A
3:35 am 03:35 Partly Cloudy 50 10 42 5.3 73 73 ENE 3 6 29.91 1013 10 16 N/A
3:55 am 03:55 Partly Cloudy 49 9.6 43 5.9 78 78 N N/A 29.94 1014 10 16 N/A
4:15 am 04:15 Mostly Cloudy 49 9.6 42 5.7 77 77 N N/A 29.94 1014 10 16 N/A
4:35 am 04:35 Mostly Cloudy 49 9.6 42 5.5 76 76 N N/A 29.94 1014 10 16 N/A
4:55 am 04:55 Partly Cloudy 49 9.6 42 5.6 76 76 N N/A 29.94 1014 10 16 N/A
5:15 am 05:15 Partly Cloudy 49 9.6 41 5.1 74 74 N N/A 29.94 1014 10 16 N/A
5:35 am 05:35 Partly Cloudy 49 9.6 41 5.1 74 74 ENE 3 6 29.94 1014 10 16 N/A
5:55 am 05:55 Clear 49 9.6 41 5 73 73 NE 3 6 29.94 1014 10 16 N/A
6:15 am 06:15 Clear 49 9.6 40 4.6 71 71 NE 3 6 29.94 1014 10 16 N/A
6:35 am 06:35 Sunny 49 9.6 40 4.7 72 72 NE 3 6 29.94 1014 10 16 N/A
6:55 am 06:55 Sunny 49 9.6 40 4.7 72 72 NE 3 6 29.94 1014 10 16 N/A
7:15 am 07:15 Sunny 49 9.6 40 4.6 71 71 NE 3 6 29.94 1014 10 16 N/A
7:35 am 07:35 Sunny 49 9.6 40 4.6 71 71 NE 6 9 29.97 1015 10 16 N/A
7:55 am 07:55 Sunny 52 11 41 4.9 66 66 NNE 3 6 29.97 1015 10 16 N/A
8:15 am 08:15 Sunny 55 12.5 42 5.5 63 63 N 5 7 29.97 1015 10 16 N/A
8:35 am 08:35 Sunny 55 12.5 40 4.7 59 59 NNE 7 11 29.97 1015 10 16 N/A
8:55 am 08:55 Sunny 57 13.8 41 5.2 56 56 N 3 6 29.97 1015 10 16 N/A
9:15 am 09:15 Sunny 57 13.8 39 4.1 52 52 N 7 11 30.00 1016 10 16 N/A
9:35 am 09:35 Sunny 60 15.3 40 4.3 48 48 N 7 11 29.97 1015 10 16 N/A
9:55 am 09:55 Sunny 60 15.6 39 4 46 46 N 9 15 29.97 1015 10 16 N/A
10:15 am 10:15 Sunny 61 16 38 3.6 44 44 NNE 8 13 29.97 1015 10 16 N/A
10:35 am 10:35 Sunny 62 16.6 38 3.2 41 41 N 8 13 29.97 1015 10 16 N/A
10:55 am 10:55 Sunny 63 17.1 37 3 39 39 N 8 13 29.97 1015 10 16 N/A
11:15 am 11:15 Sunny 64 18 36 2.4 35 35 NE 7 11 29.97 1015 10 16 N/A
11:35 am 11:35 Sunny 65 18.2 37 2.7 36 36 N 9 15 29.97 1015 10 16 N/A
11:55 am 11:55 Sunny 68 20.2 40 4.6 36 36 NNE 8 13 29.97 1015 10 16 N/A
12:15 pm 12:15 Sunny 69 20.6 38 3.2 32 32 NE 6 9 29.97 1015 10 16 N/A
12:35 pm 12:35 Sunny 69 20.8 38 3.3 32 32 NNE 9 15 29.97 1015 10 16 N/A
12:55 pm 12:55 Sunny 69 20.8 38 3.3 32 32 N 9 15 29.94 1014 10 16 N/A
1:15 pm 13:15 Sunny 69 20.8 38 3.6 32 32 N 10 17 29.94 1014 10 16 N/A
1:35 pm 13:35 Sunny 69 20.8 37 2.8 31 31 N 13 20 29.94 1014 10 16 N/A
1:55 pm 13:55 Partly Cloudy 69 20.8 37 2.9 31 31 N 7 11 29.94 1014 10 16 N/A
2:15 pm 14:15 Partly Cloudy 69 20.8 37 2.9 31 31 N 10 17 29.94 1014 10 16 N/A
2:35 pm 14:35 Partly Cloudy 69 20.8 37 2.6 30 30 NNW 9 15 29.91 1013 10 16 N/A
2:55 pm 14:55 Partly Cloudy 69 20.8 36 2.1 29 29 N 15 24 29.91 1013 10 16 N/A
3:15 pm 15:15 Partly Cloudy 69 20.8 35 1.7 28 28 NNW 8 13 29.91 1013 10 16 N/A
3:35 pm 15:35 Partly Cloudy 71 21.4 36 2.4 29 29 undefined N/A 29.91 1013 10 16 N/A
3:55 pm 15:55 Partly Cloudy 71 21.7 35 1.5 26 26 undefined N/A 29.88 1012 10 16 N/A
4:15 pm 16:15 Partly Cloudy 70 21 34 0.9 26 26 undefined N/A 29.88 1012 10 16 N/A
4:35 pm 16:35 Partly Cloudy 71 21.7 33 0.7 25 25 undefined N/A 29.88 1012 10 16 N/A
4:55 pm 16:55 Partly Cloudy 74 23.2 36 2.3 25 25 NW 13 20 29.88 1012 10 16 N/A
5:15 pm 17:15 Partly Cloudy 72 22.3 34 1 24 24 undefined N/A 29.88 1012 10 16 N/A
5:35 pm 17:35 Partly Cloudy 71 21.6 32 -0.1 24 24 undefined N/A 29.88 1012 10 16 N/A
5:55 pm 17:55 Partly Cloudy 70 21.1 31 -0.8 23 23 WNW 9 15 29.85 1011 10 16 N/A
6:15 pm 18:15 Sunny 72 22.3 29 -1.5 20 20 undefined N/A 29.85 1011 10 16 N/A
6:35 pm 18:35 Sunny 71 21.6 29 -1.4 21 21 WNW 10 17 29.85 1011 10 16 N/A
6:55 pm 18:55 Sunny 70 21 28 -2.1 21 21 undefined N/A 29.85 1011 10 16 N/A
7:15 pm 19:15 Sunny 69 20.8 28 -2.1 21 21 undefined N/A 29.85 1011 10 16 N/A
7:35 pm 19:35 Sunny 69 20.8 26 -3.2 20 20 undefined N/A 29.85 1011 10 16 N/A
7:55 pm 19:55 Sunny 69 20.8 33 0.3 26 26 undefined N/A 29.85 1011 10 16 N/A
8:15 pm 20:15 Sunny 67 19.4 34 1 29 29 WNW 5 7 29.85 1011 10 16 N/A
8:35 pm 20:35 Sunny 63 17 37 2.5 38 38 WNW 5 7 29.88 1012 10 16 N/A
8:55 pm 20:55 Clear 59 14.9 41 5.1 52 52 WNW 3 6 29.88 1012 10 16 N/A
9:15 pm 21:15 Clear 57 13.8 40 4.6 54 54 N N/A 29.91 1013 10 16 N/A
9:35 pm 21:35 Clear 55 12.5 43 6.2 66 66 undefined N/A 29.91 1013 10 16 N/A
9:55 pm 21:55 Clear 55 12.5 43 6.1 65 65 undefined N/A 29.91 1013 10 16 N/A
10:15 pm 22:15 Clear 55 12.5 42 5.5 63 63 undefined N/A 29.91 1013 10 16 N/A
10:35 pm 22:35 Clear 55 12.5 44 6.8 68 68 N N/A 29.91 1013 10 16 N/A
10:55 pm 22:55 Clear 54 12.2 44 6.8 70 70 undefined N/A 29.91 1013 10 16 N/A
11:15 pm 23:15 Clear 51 10.6 43 6.3 75 75 undefined N/A 29.91 1013 10 16 N/A
11:35 pm 23:35 Clear 51 10.3 43 6 75 75 undefined N/A 29.91 1013 10 16 N/A
11:55 pm 23:55 Clear 49 9.6 42 5.6 76 76 N N/A 29.88 1012 10 16 N/A

Powered by AerisWeather